sat.trackr.live / text

‹ back to catalog

STARLINK-3688

NORAD 52310 · 2022-041BB

PAYLOAD ACTIVE UNKNOWN

§ Identity

Operator
Country
US
Launch date
2022-04-21
Launch site
AFETR
Launch vehicle
Mass (kg)
RCS (m²)

Purposes: comms

External: N2YO · Heavens-Above · Gunter

§ Orbital elements

Epoch: 2026-09-19T17:01:39.103968Z

Period
94.01 min
Inclination
53.1599°
Eccentricity
0.0001288
Mean motion
15.31694415 rev/d
Perigee alt
469.9 km
Apogee alt
471.6 km
Semi-major
6,848.9 km
B*
6.5800e-6
RAAN
283.4528°
Arg perigee
86.6916°
Mean anomaly
273.4232°
Rev number
24,535

§ Raw data

STARLINK-36881 52310U 22041BB  26262.70948037 -.00000161  00000+0  65800-5 0  99982 52310  53.1599 283.4528 0001288  86.6916 273.4232 15.31694415245353

JSON: /api/v1/satellites/52310 · /tle

For live sub-satellite position, see the globe view (requires WebGL).

§ Visibility from observer

Set your observer location to see the next 7 days of passes ≥ 10°. The values pass through the URL so the page stays shareable.

No JS? Fill the form by hand. The geolocation button needs JavaScript.